Forside
METAR-TAF:

METAR-TAF

Lufthavne :

Derby, Australien

Breddekreds: 17-22-12S, længdekreds: 123-39-38E, højde: 7 m

Aktuelle vejr

Denne rapport blev lavet for 23 minutter siden, kl. 00:55 UTC
Vind 10 kt fra syd
Temperatur 31°C
Fugtighed 79%
Tryk 1009 hPa
Spredte skyer i en højde af 1300 ft

METAR: YDBY 240055Z AUTO 19010KT //// // SCT013 31/27 Q1009

Tid: 09:18 (01:18 UTC)


TAF: fraværende

Vejrobservationer og prognoser fra mere end 4000 lufthavne (METAR og TAF).

De gule og røde prikker repræsenterer de meteorologiske stationer.

Flyt musen over at se navnet på stationen.

Så klik over at se vejr observationer og prognoser.

At skifte det kort: Klik på de grønne knapper med et sort kors for at zoome ind; på den grønne knap med en bindestreg for at zoome ud; eller på de grønne pile for tilstødende kort.


METAR-TAF: